Location: Laas
(43.4693°N, 0.3073°E)
Time: 16:09:49
(UTC+00:00)

Okean O Rocket - Pass Details

Date: 25 October 2020
Orbit: 622 x 645 km, 98.2° (Epoch: 24 November)

Event Time Altitude Azimuth Distance (km) Brightness Sun altitude
Rises 17:31:21 0° 171° (S) 2,912 5.0 -6.5°
Reaches altitude 10° 17:33:33 10° 174° (S) 2,006 4.2 -6.9°
Maximum altitude 17:37:53 70° 257° (WSW) 673 2.0 -7.6°
Drops below altitude 10° 17:42:15 10° 342° (NNW) 2,009 4.3 -8.4°
Sets 17:44:28 0° 345° (NNW) 2,919 5.1 -8.8°
